This is the latest recevied weather packets stored in our database for station/object WX4SGA. If no packets are shown the sender has not sent any weather packets the latest 10 day(s).
| Time | Temp. | Humidity | Pressure | Rain* | Wind** | Luminosity | Snow |
|---|---|---|---|---|---|---|---|
| 1777864940 | 11.67° C | 81% | 1019.6 hPa | 0 mm | - | 0 W/m² | - |
| 1777864637 | 11.67° C | 81% | 1019.6 hPa | 0 mm | - | 0 W/m² | - |
| 1777864334 | 12.22° C | 80% | 1019.6 hPa | 0 mm | - | 0 W/m² | - |
| 1777864030 | 12.22° C | 79% | 1019.6 hPa | 0 mm | - | 0 W/m² | - |
| 1777863728 | 12.22° C | 78% | 1019.6 hPa | 0 mm | - | 0 W/m² | - |
| 1777863424 | 12.78° C | 78% | 1019.6 hPa | 0 mm | - | 0 W/m² | - |
| 1777863120 | 12.22° C | 77% | 1019.6 hPa | 0 mm | - | 0 W/m² | - |
| 1777862818 | 12.22° C | 79% | 1019.6 hPa | 0 mm | - | 0 W/m² | - |
| 1777862514 | 12.22° C | 79% | 1019.6 hPa | 0 mm | - | 0 W/m² | - |
| 1777862211 | 12.22° C | 80% | 1019.3 hPa | 0 mm | - | 0 W/m² | - |
| 1777861907 | 12.78° C | 82% | 1019.3 hPa | 0 mm | - | 0 W/m² | - |
| 1777861603 | 12.78° C | 78% | 1019.3 hPa | 0 mm | - | 0 W/m² | - |
| 1777861299 | 12.78° C | 76% | 1019 hPa | 0 mm | - | 0 W/m² | - |
| 1777860997 | 12.78° C | 76% | 1019.3 hPa | 0 mm | - | 0 W/m² | - |
| 1777860693 | 13.33° C | 76% | 1019 hPa | 0 mm | - | 0 W/m² | - |
| 1777860391 | 13.33° C | 76% | 1019 hPa | 0 mm | - | 0 W/m² | - |
| 1777860086 | 13.33° C | 76% | 1019 hPa | 0 mm | - | 0 W/m² | - |
| 1777859783 | 13.33° C | 77% | 1019 hPa | 0 mm | - | 0 W/m² | - |
| 1777859480 | 13.89° C | 77% | 1019 hPa | 0 mm | - | 0 W/m² | - |
| 1777859176 | 13.89° C | 76% | 1019 hPa | 0 mm | - | 0 W/m² | - |
| 1777858873 | 13.89° C | 74% | 1019 hPa | 0 mm | - | 0 W/m² | - |
| 1777858570 | 13.89° C | 72% | 1019 hPa | 0 mm | - | 0 W/m² | - |
| 1777858267 | 13.89° C | 68% | 1018.6 hPa | 0 mm | - | 0 W/m² | - |
| 1777857964 | 14.44° C | 69% | 1018.6 hPa | 0 mm | - | 0 W/m² | - |
| 1777857662 | 14.44° C | 70% | 1018.6 hPa | 0 mm | - | 0 W/m² | - |
* Rain latest hour (hover to see other rain measurements)
** Current wind speed in m/s (hover to see current wind gust speed)